Location: ?er?an
(49.8491°N, 14.7064°E)
Time: 14:05:02
(UTC+00:00)

Daily predictions for brighter satellites

Satellite Brightness Start Highest point End
(mag) Time Altitude Azimuth Time Altitude Azimuth Time Altitude Azimuth
Meteor 1-10 Rocket 4.4 19:28:41 10° S 19:34:13 56° E 19:39:42 10° NNE
Cosmos 1805 Rocket 4.3 19:30:58 10° N 19:35:07 39° ENE 19:39:15 10° SE
Cosmos 2221 3.7 19:31:07 10° SSW 19:35:18 48° WNW 19:39:30 10° N
Sich 1 3.7 19:32:21 10° N 19:36:30 40° ENE 19:40:37 10° SE
NOSS 2-1 (D) 3.7 19:34:37 10° NW 19:38:15 61° NE 19:43:12 10° SE
Meteor 2-6 Rocket 4.3 19:34:48 10° SSW 19:40:20 81° WNW 19:45:47 10° N
Cosmos 1842 Rocket 3.6 19:35:58 10° S 19:40:24 85° E 19:44:48 10° N
Cosmos 1536 2.8 19:37:00 10° N 19:40:54 70° ENE 19:44:49 10° SSE
Cosmos 1943 3.3 19:36:01 10° SSW 19:41:42 84° WNW 19:47:25 10° NNE
ISS -1.3 19:40:43 10° WSW 19:42:23 13° SW 19:44:02 10° SSW
Meteor 1-11 Rocket 3.8 19:37:21 10° N 19:43:03 75° ENE 19:48:52 10° SSE
SeaSat 1 4.2 19:40:13 10° SSW 19:44:22 27° WSW 19:48:33 10° NW
Cosmos 1048 Rocket 4.2 19:41:20 10° SSW 19:46:28 77° WNW 19:51:36 10° NNE
BREEZE-M DEB (TANK) 4.0 19:43:58 10° WSW 19:47:41 58° SSE 19:57:56 10° E
Terra 2.0 19:44:20 10° SSE 19:48:56 58° ENE 19:53:35 10° N
Okean 3 Rocket 4.1 19:45:21 10° NNW 19:49:40 59° W 19:53:57 10° S
MetOp-B 4.3 19:45:18 10° SSE 19:50:39 79° WSW 19:56:03 10° NNW
ARGOS Delta rocket 3.9 19:47:09 10° SSE 19:52:02 75° ENE 19:56:41 10° N
Cosmos 1302 Rocket 4.0 19:50:06 10° NNW 19:55:20 78° ENE 20:00:33 10° SSE
Cosmos 1697 Rocket 4.2 19:54:52 10° NNW 19:59:33 26° NE 20:04:12 10° E
Resurs 01 Rocket 4.0 19:57:03 10° SW 20:00:22 20° W 20:03:42 10° NW
Meteor 2-10 4.1 19:55:05 10° N 20:00:37 79° ENE 20:05:53 10° SSE
Meteor 2-9 Rocket 4.4 19:56:11 10° N 20:02:05 82° ENE 20:07:57 10° SSE
USA 281 3.7 19:58:18 10° SE 20:04:37 51° NE 20:10:57 10° NNW
Okean O Rocket 3.9 20:01:21 10° SW 20:04:47 22° W 20:08:14 10° NW
BREEZE-M DEB (TANK) 3.7 20:02:03 10° WSW 20:05:19 70° SSE 20:17:13 10° ENE
Cosmos 1980 Rocket 4.3 20:04:48 10° N 20:08:48 19° NE 20:12:48 10° E
FALCON 9 R/B 4.4 20:05:09 10° SW 20:09:46 22° S 20:19:08 11° SE
Landsat 4 3.4 20:07:17 11° SSE 20:10:39 86° ENE 20:14:08 10° NNW
MOS 1 Rocket 3.7 20:06:32 10° SSE 20:11:39 69° ENE 20:17:01 10° N
Cosmos 1340 2.3 20:11:49 10° NNW 20:15:13 87° E 20:18:12 13° SSE
NOSS 2-1 (C) 3.6 20:11:41 10° NW 20:15:28 72° SW 20:19:54 14° SSE
Spot 2 Rocket 3.5 20:10:37 10° SSE 20:15:39 88° ENE 20:20:45 10° NNW
Cosmos 1743 Rocket 3.6 20:13:53 10° N 20:18:20 88° WSW 20:22:37 11° S
Lacrosse 4 Rocket 1.5 20:15:21 10° NNW 20:19:25 70° NE 20:22:48 15° SE
Lacrosse 5 rocket 3.1 20:16:42 10° WNW 20:20:33 31° N 20:24:17 10° ENE
Meteor 2-4 Rocket 4.4 20:16:17 11° SSE 20:21:34 42° E 20:27:07 10° NNE
Meteor 1-27 Rocket 3.7 20:21:48 10° S 20:27:19 88° WNW 20:32:56 10° NNE
Cosmos 1733 3.3 20:23:56 10° NNW 20:27:25 62° W 20:30:34 12° S
Cosmos 1340 Rocket 2.8 20:26:22 10° SSW 20:30:22 84° WNW 20:34:23 10° N
NOSS 3-3 (C) 4.2 20:26:47 10° S 20:31:48 41° ESE 20:37:39 10° NE
Cosmos 1626 2.9 20:33:20 19° SE 20:34:50 28° E 20:37:39 10° NNE
SPOT 5 4.3 20:31:42 10° SSW 20:35:35 29° W 20:39:23 10° NW
Cosmos 1151 Rocket 3.0 20:32:45 10° S 20:37:05 83° E 20:41:26 10° NNE
Ariane Rocket 3.4 20:34:06 11° S 20:38:55 62° WSW 20:43:59 10° NNW
Cosmos 1092 Rocket 4.2 20:37:23 14° SSE 20:42:47 57° E 20:48:58 10° NNE
IRIDIUM 103 4.4 20:38:41 10° N 20:43:53 64° E 20:47:49 18° SSE
ARIANE 5 R/B 3.8 20:41:04 15° ESE 20:43:57 29° ENE 20:47:42 10° N
USA 234 4.3 20:38:01 10° ENE 20:44:16 49° N 20:50:30 10° WNW
Landsat 5 3.3 20:41:13 10° NNE 20:44:59 61° ESE 20:47:52 17° S
SPOT 3 Rocket 3.9 20:42:08 12° S 20:46:48 59° WSW 20:51:54 10° NNW
Cosmos 1833 Rocket 3.5 20:43:39 17° SSE 20:47:06 32° ESE 20:52:00 10° NE
MetOp-A 3.9 20:44:25 18° SSE 20:48:00 84° ENE 20:53:06 10° NNW
Cosmos 1674 4.3 20:47:56 16° ESE 20:48:55 17° E 20:51:17 10° NE
Cosmos 2195 Rocket 4.4 20:44:27 12° S 20:50:10 74° E 20:56:17 10° NNE
Cosmos 1818 3.6 20:44:59 10° SSW 20:50:22 65° SE 20:55:49 10° NE
Cosmos 1805 3.4 20:48:36 10° NNW 20:52:18 63° W 20:54:54 18° S
Cosmos 1656 3.7 20:47:52 10° NNW 20:53:21 77° WSW 20:57:19 19° SSE
Cosmos 1328 Rocket 3.7 20:50:56 20° SSE 20:53:45 53° E 20:57:57 10° NNE
Nadezhda 4 Rocket 4.3 20:47:37 10° SSW 20:53:48 71° WNW 21:00:07 10° N
Cosmos 1766 3.8 20:50:30 10° N 20:54:06 42° ENE 20:56:04 23° SE
ERS-1 Rocket 4.3 20:49:55 10° SSW 20:54:28 34° W 20:59:04 10° NNW
Cosmos 220 Rocket 4.1 20:53:42 10° SSW 20:58:02 79° WNW 21:02:21 10° NNE
Cosmos 2082 Rocket 4.1 20:57:01 11° ESE 20:58:34 12° E 21:00:45 10° ENE
Cosmos 614 Rocket 4.2 20:55:24 10° SSW 21:00:37 75° WNW 21:05:52 10° NNE
IRIDIUM 106 4.3 20:56:58 10° N 21:02:14 89° E 21:06:04 19° S
Cosmos 44 Rocket 3.4 20:58:01 10° NW 21:02:59 70° NE 21:06:18 20° SE
Cosmos 2360 4.2 20:57:15 10° NNW 21:03:00 81° ENE 21:06:58 21° SSE
Cosmos 1515 Rocket 4.5 21:01:28 22° SE 21:03:26 32° E 21:07:17 10° NNE
Cosmos 1975 3.0 20:59:39 10° NNW 21:03:34 65° W 21:06:07 20° S
Meteor 1-18 Rocket 4.3 20:58:54 15° S 21:03:53 73° E 21:09:48 10° NNE
Cosmos 1470 3.9 21:04:08 10° N 21:07:25 29° ENE 21:09:03 21° ESE
USA 59 Rocket 1.5 21:08:26 10° WNW 21:12:05 30° SW 21:15:04 18° S
SL-8 R/B 3.6 21:07:48 10° W 21:12:32 66° SSW 21:16:15 16° ESE
Cosmos 1269 Rocket 4.0 21:08:16 13° SSW 21:13:03 77° ESE 21:18:21 10° NNE
Cosmos 1470 Rocket 3.6 21:08:38 10° N 21:13:05 69° ENE 21:15:31 26° SSE
Cosmos 1633 Rocket 3.2 21:12:40 10° NNW 21:17:05 71° W 21:19:46 23° S
DELTA 2 R/B (1) 4.5 21:14:07 10° SW 21:18:43 26° S 21:20:14 23° SE
MINOTAUR 4 R/B 4.2 21:18:49 10° NNE 21:21:36 37° E 21:22:00 35° ESE
Cosmos 1666 Rocket 4.1 21:17:49 10° NNW 21:22:00 51° W 21:24:43 20° SSW
GEOS 3 Rocket 3.6 21:17:20 10° NE 21:22:27 58° SE 21:27:03 12° SSW
Terra 3.9 21:23:28 10° SW 21:26:54 20° W 21:30:22 10° NW
PSLV R/B 4.3 21:25:36 10° NNE 21:29:31 46° E 21:31:01 31° SSE
Cosmos 1908 4.0 21:27:50 10° N 21:31:09 35° ENE 21:32:24 26° ESE
Cosmos 2026 Rocket 4.3 21:26:46 13° SSW 21:32:29 68° WNW 21:38:41 10° N
Meteor 2-12 Rocket 4.4 21:33:52 23° S 21:37:55 75° E 21:44:05 10° NNE
Cosmos 1933 Rocket 3.7 21:33:43 10° N 21:38:05 66° ENE 21:40:05 31° SSE
Cosmos 1697 Rocket 2.7 21:38:28 10° NNW 21:44:06 75° WSW 21:47:10 28° SSE
Cosmos 1607 4.0 21:42:38 14° SSW 21:48:17 69° SE 21:54:45 10° NE
USA 281 4.0 21:44:56 19° SSW 21:49:14 41° WSW 21:55:26 10° NW
NOSS 3-3 (A) 4.1 21:43:43 10° SW 21:49:16 70° NW 21:55:51 10° NE
Cosmos 1707 2.6 21:52:01 42° SSE 21:53:03 64° E 21:56:40 10° NNE
Cosmos 1023 Rocket 4.4 21:50:10 24° SSW 21:53:22 79° ESE 21:58:37 10° NNE
ALOS 2 3.2 21:51:27 27° SE 21:53:31 48° ENE 21:57:45 10° N
Cosmos 1980 Rocket 2.4 21:48:10 10° NNW 21:53:54 70° ENE 21:57:19 25° SE
Orbus 7S? 3.0 21:49:42 10° SW 21:54:35 69° SE 21:57:28 10° ENE
Lacrosse 4 Rocket 3.5 21:54:47 10° WNW 21:57:13 15° WSW 21:58:43 13° SW
Cosmos 1140 Rocket 3.4 21:55:40 25° SSW 21:58:50 82° ESE 22:04:04 10° NNE
Lacrosse 5 rocket 1.7 21:55:17 10° NW 21:59:28 63° NNE 22:02:19 19° ESE
S3M 4.1 21:53:34 10° N 22:00:00 76° E 22:03:41 27° SSE
Cosmos 1441 Rocket 3.3 21:57:24 10° N 22:00:55 56° ENE 22:01:54 40° SE
Cosmos 1300 4.2 21:58:02 10° NNE 22:01:01 24° ENE 22:02:12 20° ESE
H-2A R/B 2.5 22:02:00 36° S 22:03:40 77° WSW 22:07:59 10° NNW
NOSS 3-4 (A) 3.8 21:58:15 10° NW 22:05:04 74° SW 22:10:02 24° SSE
NOSS 3-4 (C) 3.8 21:58:21 10° NW 22:05:10 75° SW 22:10:09 24° SSE
Cosmos 1553 Rocket 4.3 22:00:37 10° NNW 22:06:33 57° W 22:10:14 24° SSW
Cosmos 1626 4.2 22:06:08 10° WSW 22:08:24 18° WNW 22:10:44 10° NNW
Cosmos 1842 3.4 22:07:26 34° SW 22:08:50 62° WNW 22:12:30 10° N
BREEZE-M DEB (TANK) 2.2 22:08:15 10° W 22:15:29 - ESE 22:10:19 58° SSW
SL-14 R/B 4.5 22:13:16 25° ESE 22:14:02 28° E 22:17:20 10° NNE
Spot 4 3.8 22:12:43 34° S 22:14:48 80° WSW 22:19:36 10° NNW
BREEZE-M DEB (TANK) 4.3 22:11:59 10° SW 22:16:50 67° SSE 22:38:11 10° ENE
Cosmos 2315 Rocket 4.1 22:12:01 10° N 22:18:21 72° ENE 22:21:53 28° SSE
CZ-2C R/B 4.5 22:14:34 10° N 22:18:52 46° WNW 22:21:42 19° SW
Cosmos 2369 3.7 22:13:21 10° NNW 22:19:07 82° ENE 22:22:17 28° SSE
ARIANE 5 R/B 3.7 22:18:32 24° SW 22:20:17 34° W 22:24:14 10° NNW
KORONAS-FOTON 4.3 22:18:54 31° SW 22:20:20 50° WNW 22:23:58 10° N
Cosmos 1674 3.7 22:21:29 24° WSW 22:22:57 35° WNW 22:26:12 10° N
Meteor 1-12 Rocket 4.5 22:17:52 10° N 22:23:49 71° ENE 22:27:01 29° SSE
Cosmos 2285 Rocket 4.0 22:21:35 22° SSW 22:25:54 83° WNW 22:32:19 10° NNE
SL-08 ROCKET BODY 4.4 22:23:17 29° S 22:26:42 86° E 22:32:54 10° N
USA 234 4.0 22:20:21 10° E 22:26:43 55° NNE 22:33:04 10° WNW
COSMOS 2406 3.6 22:27:11 31° SSE 22:29:32 49° ESE 22:35:04 10° NE
Cosmos 1833 Rocket 3.4 22:25:21 10° SW 22:30:47 51° NW 22:36:17 10° NNE
Cosmos 1763 Rocket 3.5 22:25:50 10° NNW 22:31:10 81° WSW 22:33:33 34° SSE
Cosmos 540 Rocket 3.5 22:26:38 10° NNW 22:31:50 79° ENE 22:34:20 31° SSE
Cosmos 468 Rocket 4.1 22:26:47 10° NNW 22:32:06 74° ENE 22:34:47 30° SE
Meteor 1-23 Rocket 4.3 22:29:34 32° SSE 22:32:09 64° E 22:37:45 10° NNE
SL-16 R/B 3.3 22:27:00 10° NNW 22:32:21 40° NE 22:37:20 12° ESE
Cosmos 1758 3.4 22:28:50 10° N 22:32:39 61° ENE 22:33:45 41° SE
Spot 2 4.5 22:30:58 35° S 22:32:56 67° WSW 22:37:56 10° NNW
H-2A R/B 2.9 22:32:16 10° NNE 22:36:26 39° E 22:37:41 32° SE
Cosmos 407 Rocket 3.6 22:34:45 25° SW 22:37:54 73° WNW 22:43:09 10° NNE
Cosmos 724 4.5 22:34:14 13° SW 22:39:37 71° NW 22:45:28 10° NE
Okean 3 4.5 22:38:35 27° ESE 22:39:40 32° E 22:43:21 10° NNE
Cosmos 2082 Rocket 2.2 22:38:49 31° S 22:41:36 71° ESE 22:47:18 10° NNE
Cosmos 1455 4.2 22:39:13 10° NNE 22:41:36 17° ENE 22:43:10 13° E
Cosmos 2266 Rocket 4.2 22:38:38 26° SSW 22:42:19 69° WNW 22:48:38 10° N
Cosmos 1470 4.3 22:39:41 10° NW 22:42:39 23° W 22:43:42 20° WSW
Cosmos 676 Rocket 4.5 22:41:33 32° SSE 22:43:32 48° ESE 22:48:39 10° NNE
BREEZE-M DEB (TANK) 3.4 22:42:15 22° WSW 22:44:17 70° SSE 22:52:52 10° ENE
Cosmos 1954 Rocket 4.2 22:43:02 34° S 22:45:10 59° ESE 22:50:23 10° NNE
Aureole 3 3.8 22:45:21 31° E 22:45:29 31° E 22:48:23 10° NNE
Cosmos 2360 Rocket 3.9 22:40:53 10° NNW 22:45:49 29° NE 22:50:43 10° ESE
Cosmos 1733 Rocket 3.1 22:42:13 10° N 22:46:35 74° ENE 22:48:07 39° SSE
Cosmos 1190 Rocket 4.0 22:48:13 32° SSW 22:50:43 84° ESE 22:56:04 10° NNE
Cosmos 1869 Rocket 4.4 22:48:17 10° NNW 22:52:21 38° W 22:53:51 29° SW
Cosmos 2228 Rocket 3.0 22:58:02 40° S 22:59:38 89° W 23:04:12 10° N
Meteor 2-10 Rocket 3.9 22:54:56 10° NNW 23:00:44 67° W 23:03:24 32° S
Cosmos 1655 Rocket 4.2 22:57:29 27° SSW 23:01:05 72° W 23:07:31 10° N
Cosmos 1315 Rocket 4.4 23:00:04 20° ESE 23:01:09 23° E 23:04:17 10° NE
ATLAS 2AS CENTAUR R/B 4.0 22:55:14 10° NW 23:01:43 39° NNE 23:07:58 10° E
Cosmos 2251 Rocket 4.1 22:59:13 20° SW 23:02:42 52° WNW 23:07:53 10° NNE
Cosmos 2237 4.4 22:59:28 10° NNW 23:05:13 72° ENE 23:09:03 22° SE
Okean 1-7 3.7 23:09:28 32° SE 23:10:54 44° E 23:15:02 10° NNE
Cosmos 1346 Rocket 2.6 23:09:16 10° NNW 23:13:09 79° W 23:14:08 49° S
Helios 1A Rocket 4.5 23:11:00 16° ESE 23:13:19 27° ENE 23:16:37 10° N
GP-B 3.5 23:12:40 10° N 23:16:59 54° W 23:18:36 34° SW
Cosmos 1400 Rocket 3.3 23:15:48 34° SW 23:17:09 50° WNW 23:21:02 10° N
Cosmos 2278 3.7 23:12:05 10° NNW 23:17:49 86° WSW 23:21:03 27° SSE
SL-4 R/B 4.0 23:21:10 16° ESE 23:21:10 16° ESE 23:23:03 10° E
Meteor 1-21 4.2 23:18:44 31° SSW 23:21:35 84° WNW 23:27:24 10° N
Cosmos 1703 Rocket 4.4 23:22:16 28° SE 23:24:00 41° E 23:28:12 10° NNE
Cosmos 1862 Rocket 3.7 23:26:10 37° SW 23:27:44 64° WNW 23:32:05 10° N
Cosmos 2322 Rocket 2.6 23:22:20 10° NNW 23:27:57 62° ENE 23:32:46 14° SE
ALOS 2 4.2 23:28:50 19° WSW 23:30:06 21° W 23:33:29 10° NW
Cosmos 1356 Rocket 3.6 23:29:58 38° SW 23:31:21 63° WNW 23:35:30 10° N
USA 267 3.5 23:26:07 10° ENE 23:32:28 51° SE 23:35:51 27° SSW
PSLV R/B 4.3 23:30:33 10° N 23:34:50 45° WNW 23:36:50 26° SW
Cosmos 1300 3.9 23:32:41 10° NNW 23:35:43 26° W 23:36:14 25° WSW
SJ 16-02 3.0 23:34:22 19° SE 23:35:56 23° E 23:39:21 10° NE
Cosmos 1980 Rocket 3.6 23:33:01 10° NW 23:37:21 23° WSW 23:39:04 20° SW
Lacrosse 5 rocket 2.3 23:33:59 10° WNW 23:37:07 28° WSW 23:37:07 28° WSW
SL-08 R/B 4.4 23:35:16 29° S 23:38:36 88° E 23:44:46 10° N
Cosmos 968 Rocket 4.3 23:37:40 26° SSE 23:39:52 38° ESE 23:44:38 10° NE
Cosmos 2333 Rocket 2.8 23:34:57 10° NNW 23:40:36 56° NE 23:46:15 10° SE
Meteor 1-4 Rocket 1.9 23:41:04 65° SE 23:41:16 69° E 23:44:14 10° NNE
Resurs 1-4 Rocket 4.3 23:38:57 10° NE 23:42:04 16° E 23:45:10 10° SE
Cosmos 1953 2.1 23:40:21 10° NNW 23:44:16 79° W 23:45:27 43° S
CZ-2D R/B 4.3 23:43:15 10° NE 23:46:44 17° E 23:50:10 10° SE
Cosmos 1850 Rocket 4.1 23:47:01 31° S 23:49:28 67° ESE 23:54:42 10° NNE
Cosmos 1745 Rocket 4.1 23:49:42 26° S 23:53:22 73° E 23:59:41 10° NNE
Cosmos 841 Rocket 3.8 23:48:43 10° NNW 23:53:47 50° WSW 23:55:58 31° SSW
RESURS DK-1 2.8 23:50:48 10° NNW 23:54:50 59° ENE 23:57:56 16° SE
